Time,TemperatureF,DewpointF,PressureIn,WindDirection,WindDirectionDegrees,WindSpeedMPH,WindSpeedGustMPH,Humidity,HourlyPrecipIn,Conditions,Clouds,dailyrainin,SoftwareType,DateUTC
2013-11-21 00:00:00,70.0,66.3,29.88,East,90,0.0,2.0,88,0.00,,---,0.00,VWS V14.01,2013-11-21 05:00:00,
2013-11-21 00:01:00,70.0,66.3,29.88,East,90,0.0,0.0,88,0.00,,---,0.00,VWS V14.01,2013-11-21 05:01:00,
2013-11-21 00:07:00,70.0,66.3,29.88,East,90,0.0,0.0,88,0.00,,---,0.00,VWS V14.01,2013-11-21 05:07:00,
2013-11-21 00:12:00,70.0,66.3,29.88,East,90,0.0,0.0,88,0.00,,---,0.00,VWS V14.01,2013-11-21 05:12:00,
2013-11-21 00:17:00,70.0,66.3,29.88,NNE,22,0.0,0.0,88,0.00,,---,0.00,VWS V14.01,2013-11-21 05:17:00,
2013-11-21 00:22:00,70.0,66.3,29.88,NW,315,0.0,0.0,88,0.00,,---,0.00,VWS V14.01,2013-11-21 05:22:00,
2013-11-21 00:27:00,70.0,66.3,29.88,NW,315,0.0,1.1,88,0.00,,---,0.00,VWS V14.01,2013-11-21 05:27:00,
2013-11-21 00:32:00,70.0,66.3,29.88,NNE,22,0.0,0.0,88,0.00,,---,0.00,VWS V14.01,2013-11-21 05:32:00,
2013-11-21 00:37:00,69.8,66.1,29.88,NNW,338,0.0,0.0,88,0.00,,---,0.00,VWS V14.01,2013-11-21 05:37:00,
2013-11-21 00:42:00,69.8,66.1,29.88,North,0,0.0,0.0,88,0.00,,---,0.00,VWS V14.01,2013-11-21 05:42:00,
2013-11-21 00:47:00,69.8,66.1,29.88,NE,45,0.0,0.0,88,0.00,,---,0.00,VWS V14.01,2013-11-21 05:47:00,
2013-11-21 00:52:00,69.8,66.1,29.88,NE,45,0.0,0.0,88,0.00,,---,0.00,VWS V14.01,2013-11-21 05:52:00,
2013-11-21 00:57:00,69.8,66.4,29.88,NE,45,0.0,0.0,89,0.00,,---,0.00,VWS V14.01,2013-11-21 05:57:00,
2013-11-21 01:02:00,69.8,66.4,29.88,NE,45,0.0,0.0,89,0.00,,---,0.00,VWS V14.01,2013-11-21 06:02:00,
2013-11-21 01:07:00,69.8,66.4,29.88,NE,45,0.0,0.0,89,0.00,,---,0.00,VWS V14.01,2013-11-21 06:07:00,
2013-11-21 01:12:00,69.8,66.4,29.88,NE,45,0.0,0.0,89,0.00,,---,0.00,VWS V14.01,2013-11-21 06:12:00,
2013-11-21 01:17:00,70.0,66.6,29.88,NE,45,0.0,0.0,89,0.00,,---,0.00,VWS V14.01,2013-11-21 06:17:00,
2013-11-21 01:22:00,70.0,66.6,29.88,ENE,68,0.0,0.0,89,0.00,,---,0.00,VWS V14.01,2013-11-21 06:22:00,
2013-11-21 01:27:00,70.0,66.6,29.88,ENE,68,0.0,0.0,89,0.00,,---,0.00,VWS V14.01,2013-11-21 06:27:00,
2013-11-21 01:32:00,70.0,66.6,29.88,NNE,22,0.0,0.0,89,0.00,,---,0.00,VWS V14.01,2013-11-21 06:32:00,
2013-11-21 01:37:00,70.0,66.6,29.88,East,90,2.7,2.7,89,0.00,,---,0.00,VWS V14.01,2013-11-21 06:37:00,
2013-11-21 01:42:00,70.0,66.6,29.88,East,90,0.0,0.0,89,0.00,,---,0.00,VWS V14.01,2013-11-21 06:42:00,
2013-11-21 01:47:00,69.8,66.4,29.88,East,90,0.0,0.0,89,0.00,,---,0.00,VWS V14.01,2013-11-21 06:47:00,
2013-11-21 01:52:00,69.8,66.4,29.88,East,90,0.0,0.0,89,0.00,,---,0.00,VWS V14.01,2013-11-21 06:52:00,
2013-11-21 01:57:00,69.8,66.4,29.88,South,180,0.0,0.0,89,0.00,,---,0.00,VWS V14.01,2013-11-21 06:57:00,
2013-11-21 02:02:00,69.8,66.4,29.88,North,0,0.0,0.0,89,0.00,,---,0.00,VWS V14.01,2013-11-21 07:02:00,
2013-11-21 02:07:00,69.8,66.4,29.88,NNW,338,0.0,0.0,89,0.00,,---,0.00,VWS V14.01,2013-11-21 07:07:00,
2013-11-21 02:12:00,69.8,66.4,29.88,NW,315,0.0,0.0,89,0.00,,---,0.00,VWS V14.01,2013-11-21 07:12:00,
2013-11-21 02:17:00,69.8,66.4,29.88,NW,315,0.0,0.0,89,0.00,,---,0.00,VWS V14.01,2013-11-21 07:17:00,
2013-11-21 02:22:00,69.8,66.4,29.88,East,90,0.0,0.0,89,0.00,,---,0.00,VWS V14.01,2013-11-21 07:22:00,
2013-11-21 02:27:00,69.8,66.4,29.88,East,90,0.0,0.0,89,0.00,,---,0.00,VWS V14.01,2013-11-21 07:27:00,
2013-11-21 02:32:00,69.8,66.4,29.88,East,90,0.0,0.0,89,0.00,,---,0.00,VWS V14.01,2013-11-21 07:32:00,
2013-11-21 02:37:00,69.8,66.4,29.88,East,90,0.0,0.0,89,0.00,,---,0.00,VWS V14.01,2013-11-21 07:37:00,
2013-11-21 02:42:00,69.8,66.4,29.88,NW,315,0.0,0.0,89,0.00,,---,0.00,VWS V14.01,2013-11-21 07:42:00,
2013-11-21 02:47:00,69.8,66.4,29.88,NW,315,0.0,0.0,89,0.00,,---,0.00,VWS V14.01,2013-11-21 07:47:00,
2013-11-21 02:52:00,69.8,66.4,29.88,ENE,68,0.0,0.0,89,0.00,,---,0.00,VWS V14.01,2013-11-21 07:52:00,
2013-11-21 02:57:00,69.8,66.4,29.88,ENE,68,0.0,0.0,89,0.00,,---,0.00,VWS V14.01,2013-11-21 07:57:00,
2013-11-21 03:02:00,69.8,66.4,29.88,ENE,68,0.0,0.0,89,0.00,,---,0.00,VWS V14.01,2013-11-21 08:02:00,
2013-11-21 03:07:00,70.0,66.9,29.88,ENE,68,0.0,0.0,90,0.00,,---,0.00,VWS V14.01,2013-11-21 08:07:00,
2013-11-21 03:12:00,70.0,66.9,29.88,NE,45,0.0,0.0,90,0.00,,---,0.00,VWS V14.01,2013-11-21 08:12:00,
2013-11-21 03:17:00,70.0,66.9,29.88,NE,45,0.0,0.0,90,0.00,,---,0.00,VWS V14.01,2013-11-21 08:17:00,
2013-11-21 03:22:00,70.0,66.9,29.88,NNW,338,0.0,0.0,90,0.00,,---,0.00,VWS V14.01,2013-11-21 08:22:00,
2013-11-21 03:27:00,70.0,66.9,29.88,WNW,292,0.0,0.0,90,0.00,,---,0.00,VWS V14.01,2013-11-21 08:27:00,
2013-11-21 03:32:00,70.0,66.9,29.88,NE,45,0.0,0.0,90,0.00,,---,0.00,VWS V14.01,2013-11-21 08:32:00,
2013-11-21 03:37:00,70.0,66.9,29.88,North,0,0.0,0.0,90,0.00,,---,0.00,VWS V14.01,2013-11-21 08:37:00,
2013-11-21 03:42:00,70.2,67.1,29.88,NW,315,0.0,0.0,90,0.00,,---,0.00,VWS V14.01,2013-11-21 08:42:00,
2013-11-21 03:47:00,70.0,66.9,29.88,NW,315,0.0,0.0,90,0.00,,---,0.00,VWS V14.01,2013-11-21 08:47:00,
2013-11-21 03:52:00,70.0,66.9,29.88,NW,315,0.0,0.0,90,0.00,,---,0.00,VWS V14.01,2013-11-21 08:52:00,
2013-11-21 03:57:00,70.0,66.9,29.88,NW,315,0.0,0.0,90,0.00,,---,0.00,VWS V14.01,2013-11-21 08:57:00,
2013-11-21 04:02:00,70.0,66.9,29.88,NNE,22,0.0,0.0,90,0.00,,---,0.00,VWS V14.01,2013-11-21 09:02:00,
2013-11-21 04:07:00,70.0,66.9,29.88,NW,315,0.0,0.0,90,0.00,,---,0.00,VWS V14.01,2013-11-21 09:07:00,
2013-11-21 04:12:00,70.0,66.9,29.88,NE,45,0.0,0.0,90,0.00,,---,0.00,VWS V14.01,2013-11-21 09:12:00,
2013-11-21 04:17:00,69.8,66.7,29.88,NNW,338,0.0,0.0,90,0.00,,---,0.00,VWS V14.01,2013-11-21 09:17:00,
2013-11-21 04:22:00,69.8,66.4,29.88,NE,45,0.0,0.0,89,0.00,,---,0.00,VWS V14.01,2013-11-21 09:22:00,
2013-11-21 04:27:00,69.8,66.4,29.88,NE,45,0.0,0.0,89,0.00,,---,0.00,VWS V14.01,2013-11-21 09:27:00,
2013-11-21 04:32:00,69.8,66.4,29.88,NE,45,0.0,0.0,89,0.00,,---,0.00,VWS V14.01,2013-11-21 09:32:00,
2013-11-21 04:37:00,69.8,66.4,29.88,NE,45,0.0,0.0,89,0.00,,---,0.00,VWS V14.01,2013-11-21 09:37:00,
2013-11-21 04:42:00,69.8,66.4,29.88,NE,45,0.0,0.0,89,0.00,,---,0.00,VWS V14.01,2013-11-21 09:42:00,
2013-11-21 04:47:00,69.8,66.4,29.88,NE,45,0.0,0.0,89,0.00,,---,0.00,VWS V14.01,2013-11-21 09:47:00,
2013-11-21 04:52:00,69.8,66.4,29.88,NE,45,0.0,0.0,89,0.00,,---,0.00,VWS V14.01,2013-11-21 09:52:00,
2013-11-21 04:57:00,69.8,66.4,29.88,NE,45,0.0,0.0,89,0.00,,---,0.00,VWS V14.01,2013-11-21 09:57:00,
2013-11-21 05:02:00,69.8,66.4,29.88,NE,45,0.0,0.0,89,0.00,,---,0.00,VWS V14.01,2013-11-21 10:02:00,
2013-11-21 05:07:00,69.8,66.1,29.88,NE,45,0.0,0.0,88,0.00,,---,0.00,VWS V14.01,2013-11-21 10:07:00,
2013-11-21 05:12:00,69.8,66.1,29.88,WNW,292,0.0,0.0,88,0.00,,---,0.00,VWS V14.01,2013-11-21 10:12:00,
2013-11-21 05:17:00,69.6,65.9,29.88,WNW,292,0.0,0.0,88,0.00,,---,0.00,VWS V14.01,2013-11-21 10:17:00,
2013-11-21 05:22:00,69.6,65.9,29.88,WNW,292,0.0,0.0,88,0.00,,---,0.00,VWS V14.01,2013-11-21 10:22:00,
2013-11-21 05:27:00,69.6,65.9,29.88,WNW,292,0.0,0.0,88,0.00,,---,0.00,VWS V14.01,2013-11-21 10:27:00,
2013-11-21 05:32:00,69.6,65.9,29.88,NW,315,0.0,0.0,88,0.00,,---,0.00,VWS V14.01,2013-11-21 10:32:00,
2013-11-21 05:37:00,69.6,65.6,29.88,WNW,292,0.0,0.0,87,0.00,,---,0.00,VWS V14.01,2013-11-21 10:37:00,
2013-11-21 05:42:00,69.6,65.6,29.88,WNW,292,0.0,0.0,87,0.00,,---,0.00,VWS V14.01,2013-11-21 10:42:00,
2013-11-21 05:47:00,69.6,65.6,29.88,WNW,292,0.0,0.0,87,0.00,,---,0.00,VWS V14.01,2013-11-21 10:47:00,
2013-11-21 05:52:00,69.8,65.8,29.88,WNW,292,0.0,0.0,87,0.00,,---,0.00,VWS V14.01,2013-11-21 10:52:00,
2013-11-21 05:57:00,69.8,65.8,29.88,SW,225,0.0,0.0,87,0.00,,---,0.00,VWS V14.01,2013-11-21 10:57:00,
2013-11-21 06:02:00,69.8,65.8,29.88,NW,315,0.0,0.0,87,0.00,,---,0.00,VWS V14.01,2013-11-21 11:02:00,
2013-11-21 06:08:00,69.8,65.8,29.91,West,270,0.0,0.0,87,0.00,,---,0.00,VWS V14.01,2013-11-21 11:08:00,
2013-11-21 06:13:00,70.0,65.9,29.91,WSW,248,0.0,2.0,87,0.00,,---,0.00,VWS V14.01,2013-11-21 11:13:00,
2013-11-21 06:18:00,70.0,65.9,29.91,WSW,248,0.0,0.0,87,0.00,,---,0.00,VWS V14.01,2013-11-21 11:18:00,
2013-11-21 06:23:00,70.0,65.9,29.91,NW,315,0.0,0.0,87,0.00,,---,0.00,VWS V14.01,2013-11-21 11:23:00,
2013-11-21 06:28:00,70.0,65.9,29.91,WNW,292,0.0,0.0,87,0.00,,---,0.00,VWS V14.01,2013-11-21 11:28:00,
2013-11-21 06:33:00,70.0,65.9,29.91,ENE,68,0.0,0.0,87,0.00,,---,0.00,VWS V14.01,2013-11-21 11:33:00,
2013-11-21 06:38:00,70.0,65.9,29.91,NNW,338,2.7,2.7,87,0.00,,---,0.00,VWS V14.01,2013-11-21 11:38:00,
2013-11-21 06:43:00,70.0,65.9,29.91,NW,315,1.6,2.5,87,0.00,,---,0.00,VWS V14.01,2013-11-21 11:43:00,
2013-11-21 06:48:00,70.0,65.9,29.91,South,180,0.0,0.0,87,0.00,,---,0.00,VWS V14.01,2013-11-21 11:48:00,
2013-11-21 06:53:00,70.0,65.9,29.91,NW,315,0.0,2.0,87,0.00,,---,0.00,VWS V14.01,2013-11-21 11:53:00,
2013-11-21 06:58:00,70.2,66.1,29.91,NW,315,0.0,0.0,87,0.00,,---,0.00,VWS V14.01,2013-11-21 11:58:00,
2013-11-21 07:03:00,70.2,66.1,29.91,SW,225,0.0,0.0,87,0.00,,---,0.00,VWS V14.01,2013-11-21 12:03:00,
2013-11-21 07:08:00,70.2,66.1,29.91,NW,315,0.0,0.0,87,0.00,,---,0.00,VWS V14.01,2013-11-21 12:08:00,
2013-11-21 07:13:00,70.3,66.3,29.91,NW,315,0.0,0.0,87,0.00,,---,0.00,VWS V14.01,2013-11-21 12:13:00,
2013-11-21 07:18:00,70.3,66.3,29.91,NW,315,2.5,2.5,87,0.00,,---,0.00,VWS V14.01,2013-11-21 12:18:00,
2013-11-21 07:23:00,70.5,66.5,29.91,North,0,2.5,2.5,87,0.00,,---,0.00,VWS V14.01,2013-11-21 12:23:00,
2013-11-21 07:28:00,70.7,66.7,29.91,NNW,338,1.1,1.1,87,0.00,,---,0.00,VWS V14.01,2013-11-21 12:28:00,
2013-11-21 07:33:00,70.7,66.7,29.91,NW,315,0.0,1.1,87,0.00,,---,0.00,VWS V14.01,2013-11-21 12:33:00,
2013-11-21 07:38:00,70.9,66.8,29.91,NE,45,0.0,0.0,87,0.00,,---,0.00,VWS V14.01,2013-11-21 12:38:00,
2013-11-21 07:43:00,71.1,66.7,29.91,NNE,22,1.1,1.1,86,0.00,,---,0.00,VWS V14.01,2013-11-21 12:43:00,
2013-11-21 07:48:00,71.1,66.7,29.91,ENE,68,0.0,2.0,86,0.00,,---,0.00,VWS V14.01,2013-11-21 12:48:00,
2013-11-21 07:53:00,71.2,66.8,29.94,NW,315,3.1,3.1,86,0.00,,---,0.00,VWS V14.01,2013-11-21 12:53:00,
2013-11-21 07:58:00,71.4,67.0,29.94,North,0,3.4,3.8,86,0.00,,---,0.00,VWS V14.01,2013-11-21 12:58:00,
2013-11-21 08:03:00,71.4,66.7,29.94,East,90,0.0,2.5,85,0.00,,---,0.00,VWS V14.01,2013-11-21 13:03:00,
2013-11-21 08:08:00,71.6,66.9,29.94,NE,45,2.7,3.1,85,0.00,,---,0.00,VWS V14.01,2013-11-21 13:08:00,
2013-11-21 08:13:00,71.8,66.7,29.94,NNE,22,6.0,6.0,84,0.00,,---,0.00,VWS V14.01,2013-11-21 13:13:00,
2013-11-21 08:18:00,71.8,66.3,29.94,ENE,68,3.1,4.7,83,0.00,,---,0.00,VWS V14.01,2013-11-21 13:18:00,
2013-11-21 08:23:00,72.0,66.5,29.94,SW,225,4.3,4.3,83,0.00,,---,0.00,VWS V14.01,2013-11-21 13:23:00,
2013-11-21 08:28:00,72.1,66.7,29.94,NNE,22,4.3,5.8,83,0.00,,---,0.00,VWS V14.01,2013-11-21 13:28:00,
2013-11-21 08:33:00,72.3,66.5,29.94,East,90,1.6,4.3,82,0.00,,---,0.00,VWS V14.01,2013-11-21 13:33:00,
2013-11-21 08:38:00,72.5,66.7,29.94,North,0,2.9,5.6,82,0.00,,---,0.00,VWS V14.01,2013-11-21 13:38:00,
2013-11-21 08:43:00,72.5,66.3,29.94,East,90,1.3,3.4,81,0.00,,---,0.00,VWS V14.01,2013-11-21 13:43:00,
2013-11-21 08:48:00,72.7,66.5,29.94,NE,45,2.5,2.5,81,0.00,,---,0.00,VWS V14.01,2013-11-21 13:48:00,
2013-11-21 08:53:00,72.9,66.3,29.94,NNE,22,3.1,3.1,80,0.00,,---,0.00,VWS V14.01,2013-11-21 13:53:00,
2013-11-21 08:58:00,73.0,66.5,29.94,NNW,338,3.1,5.4,80,0.00,,---,0.00,VWS V14.01,2013-11-21 13:58:00,
2013-11-21 09:03:00,73.0,66.2,29.94,NE,45,2.0,2.0,79,0.00,,---,0.00,VWS V14.01,2013-11-21 14:03:00,
2013-11-21 09:08:00,73.0,65.8,29.94,NE,45,1.1,1.1,78,0.00,,---,0.00,VWS V14.01,2013-11-21 14:08:00,
2013-11-21 09:13:00,73.4,66.1,29.94,NNE,22,3.6,3.6,78,0.00,,---,0.00,VWS V14.01,2013-11-21 14:13:00,
2013-11-21 09:18:00,73.4,65.8,29.94,NNW,338,0.9,0.9,77,0.00,,---,0.00,VWS V14.01,2013-11-21 14:18:00,
2013-11-21 09:23:00,73.4,65.4,29.94,NE,45,2.9,4.0,76,0.00,,---,0.00,VWS V14.01,2013-11-21 14:23:00,
2013-11-21 09:28:00,73.8,65.7,29.94,North,0,3.1,4.7,76,0.00,,---,0.00,VWS V14.01,2013-11-21 14:28:00,
2013-11-21 09:33:00,74.3,65.9,29.94,North,0,4.0,4.0,75,0.00,,---,0.00,VWS V14.01,2013-11-21 14:33:00,
2013-11-21 09:38:00,74.5,65.7,29.97,East,90,3.8,3.8,74,0.00,,---,0.00,VWS V14.01,2013-11-21 14:38:00,
2013-11-21 09:43:00,75.0,65.8,29.97,ENE,68,1.3,1.3,73,0.00,,---,0.00,VWS V14.01,2013-11-21 14:43:00,
2013-11-21 09:48:00,77.0,66.5,29.97,NNE,22,3.8,3.8,70,0.00,,---,0.00,VWS V14.01,2013-11-21 14:48:00,
2013-11-21 09:53:00,79.2,66.8,29.94,NNW,338,2.7,3.6,66,0.00,,---,0.00,VWS V14.01,2013-11-21 14:53:00,
2013-11-21 09:58:00,77.5,64.4,29.94,East,90,2.5,4.9,64,0.00,,---,0.00,VWS V14.01,2013-11-21 14:58:00,
2013-11-21 10:03:00,77.2,64.9,29.94,North,0,3.4,3.6,66,0.00,,---,0.00,VWS V14.01,2013-11-21 15:03:00,
2013-11-21 10:08:00,77.0,64.8,29.97,NE,45,4.3,4.9,66,0.00,,---,0.00,VWS V14.01,2013-11-21 15:08:00,
2013-11-21 10:13:00,77.2,64.9,29.97,North,0,2.5,4.0,66,0.00,,---,0.00,VWS V14.01,2013-11-21 15:13:00,
2013-11-21 10:18:00,77.2,64.5,29.97,NW,315,3.8,3.8,65,0.00,,---,0.00,VWS V14.01,2013-11-21 15:18:00,
2013-11-21 10:23:00,76.6,64.4,29.97,NE,45,2.2,3.8,66,0.00,,---,0.00,VWS V14.01,2013-11-21 15:23:00,
2013-11-21 10:28:00,76.6,64.0,29.97,WNW,292,6.0,6.0,65,0.00,,---,0.00,VWS V14.01,2013-11-21 15:28:00,
2013-11-21 10:34:00,76.6,64.4,29.97,NW,315,3.4,5.6,66,0.00,,---,0.00,VWS V14.01,2013-11-21 15:34:00,
2013-11-21 10:39:00,77.5,65.3,29.97,SE,135,2.7,3.8,66,0.00,,---,0.00,VWS V14.01,2013-11-21 15:39:00,
2013-11-21 10:44:00,77.2,64.5,29.97,NNE,22,9.6,9.6,65,0.00,,---,0.00,VWS V14.01,2013-11-21 15:44:00,
2013-11-21 10:49:00,77.0,64.3,29.97,East,90,6.3,6.3,65,0.00,,---,0.00,VWS V14.01,2013-11-21 15:49:00,
2013-11-21 10:54:00,76.6,64.0,29.97,East,90,4.7,4.7,65,0.00,,---,0.00,VWS V14.01,2013-11-21 15:54:00,
2013-11-21 10:59:00,76.6,64.0,29.97,NW,315,6.0,6.0,65,0.00,,---,0.00,VWS V14.01,2013-11-21 15:59:00,
2013-11-21 11:04:00,76.6,64.4,29.97,NNE,22,3.8,3.8,66,0.00,,---,0.00,VWS V14.01,2013-11-21 16:04:00,
2013-11-21 11:09:00,76.5,64.3,29.94,West,270,2.7,4.9,66,0.00,,---,0.00,VWS V14.01,2013-11-21 16:09:00,
2013-11-21 11:14:00,77.0,64.8,29.94,NE,45,3.4,6.3,66,0.00,,---,0.00,VWS V14.01,2013-11-21 16:14:00,
2013-11-21 11:19:00,77.0,63.9,29.94,ENE,68,2.7,6.0,64,0.00,,---,0.00,VWS V14.01,2013-11-21 16:19:00,
2013-11-21 11:24:00,77.5,64.4,29.94,SE,135,1.6,5.4,64,0.00,,---,0.00,VWS V14.01,2013-11-21 16:24:00,
2013-11-21 11:29:00,77.9,64.8,29.94,NE,45,3.8,3.8,64,0.00,,---,0.00,VWS V14.01,2013-11-21 16:29:00,
2013-11-21 11:34:00,78.3,64.2,29.94,North,0,3.8,7.2,62,0.00,,---,0.00,VWS V14.01,2013-11-21 16:34:00,
2013-11-21 11:39:00,77.9,63.4,29.94,NW,315,4.0,6.5,61,0.00,,---,0.00,VWS V14.01,2013-11-21 16:39:00,
2013-11-21 11:44:00,77.4,63.3,29.94,NE,45,6.0,6.0,62,0.00,,---,0.00,VWS V14.01,2013-11-21 16:44:00,
2013-11-21 11:49:00,77.5,63.5,29.94,NNE,22,3.1,5.6,62,0.00,,---,0.00,VWS V14.01,2013-11-21 16:49:00,
2013-11-21 11:54:00,77.4,63.3,29.94,North,0,2.7,5.8,62,0.00,,---,0.00,VWS V14.01,2013-11-21 16:54:00,
2013-11-21 11:59:00,77.7,63.7,29.94,NNW,338,5.8,5.8,62,0.00,,---,0.00,VWS V14.01,2013-11-21 16:59:00,
2013-11-21 12:04:00,78.3,64.2,29.94,NNE,22,10.7,10.7,62,0.00,,---,0.00,VWS V14.01,2013-11-21 17:04:00,
2013-11-21 12:09:00,78.3,63.7,29.94,NE,45,3.6,4.0,61,0.00,,---,0.00,VWS V14.01,2013-11-21 17:09:00,
2013-11-21 12:14:00,79.2,64.6,29.94,ENE,68,4.0,8.1,61,0.00,,---,0.00,VWS V14.01,2013-11-21 17:14:00,
2013-11-21 12:19:00,80.6,65.4,29.94,NE,45,3.8,3.8,60,0.00,,---,0.00,VWS V14.01,2013-11-21 17:19:00,
2013-11-21 12:24:00,81.1,64.0,29.91,North,0,7.4,7.8,56,0.00,,---,0.00,VWS V14.01,2013-11-21 17:24:00,
2013-11-21 12:29:00,80.4,64.3,29.91,East,90,3.4,3.8,58,0.00,,---,0.00,VWS V14.01,2013-11-21 17:29:00,
2013-11-21 12:34:00,80.6,63.0,29.91,ENE,68,3.1,6.0,55,0.00,,---,0.00,VWS V14.01,2013-11-21 17:34:00,
2013-11-21 12:39:00,80.1,63.5,29.91,North,0,3.6,3.6,57,0.00,,---,0.00,VWS V14.01,2013-11-21 17:39:00,
2013-11-21 12:44:00,79.5,63.0,29.91,NE,45,7.4,7.4,57,0.00,,---,0.00,VWS V14.01,2013-11-21 17:44:00,
2013-11-21 12:49:00,79.3,62.8,29.91,NE,45,8.1,8.1,57,0.00,,---,0.00,VWS V14.01,2013-11-21 17:49:00,
2013-11-21 12:54:00,79.2,63.6,29.91,ENE,68,5.4,5.4,59,0.00,,---,0.00,VWS V14.01,2013-11-21 17:54:00,
2013-11-21 12:59:00,79.5,64.0,29.91,NNW,338,3.6,8.1,59,0.00,,---,0.00,VWS V14.01,2013-11-21 17:59:00,
2013-11-21 13:04:00,80.1,64.0,29.91,North,0,7.2,7.2,58,0.00,,---,0.00,VWS V14.01,2013-11-21 18:04:00,
2013-11-21 13:09:00,81.5,65.8,29.91,NNW,338,2.9,3.1,59,0.00,,---,0.00,VWS V14.01,2013-11-21 18:09:00,
2013-11-21 13:14:00,81.7,62.9,29.91,NNE,22,6.7,6.7,53,0.00,,---,0.00,VWS V14.01,2013-11-21 18:14:00,
2013-11-21 13:19:00,81.5,62.2,29.91,NE,45,3.8,4.9,52,0.00,,---,0.00,VWS V14.01,2013-11-21 18:19:00,
2013-11-21 13:24:00,81.0,62.2,29.91,NNW,338,4.0,4.0,53,0.00,,---,0.00,VWS V14.01,2013-11-21 18:24:00,
2013-11-21 13:29:00,79.9,61.2,29.91,ENE,68,2.0,5.4,53,0.00,,---,0.00,VWS V14.01,2013-11-21 18:29:00,
2013-11-21 13:34:00,79.7,61.6,29.91,East,90,2.7,2.7,54,0.00,,---,0.00,VWS V14.01,2013-11-21 18:34:00,
2013-11-21 13:39:00,79.5,62.0,29.91,ESE,112,7.4,7.4,55,0.00,,---,0.00,VWS V14.01,2013-11-21 18:39:00,
2013-11-21 13:44:00,78.8,61.3,29.91,North,0,2.5,2.9,55,0.00,,---,0.00,VWS V14.01,2013-11-21 18:44:00,
2013-11-21 13:49:00,78.3,61.8,29.91,NNE,22,1.6,2.0,57,0.00,,---,0.00,VWS V14.01,2013-11-21 18:49:00,
2013-11-21 13:54:00,78.1,62.1,29.91,ENE,68,2.0,2.9,58,0.00,,---,0.00,VWS V14.01,2013-11-21 18:54:00,
2013-11-21 13:59:00,77.9,62.4,29.91,East,90,2.7,4.9,59,0.00,,---,0.00,VWS V14.01,2013-11-21 18:59:00,
2013-11-21 14:05:00,78.1,62.6,29.91,East,90,4.0,4.0,59,0.00,,---,0.00,VWS V14.01,2013-11-21 19:05:00,
2013-11-21 14:10:00,78.8,63.3,29.91,ESE,112,1.6,2.5,59,0.00,,---,0.00,VWS V14.01,2013-11-21 19:10:00,
2013-11-21 14:15:00,79.3,63.3,29.91,ENE,68,3.8,4.0,58,0.00,,---,0.00,VWS V14.01,2013-11-21 19:15:00,
2013-11-21 14:20:00,79.7,63.1,29.91,North,0,3.8,3.8,57,0.00,,---,0.00,VWS V14.01,2013-11-21 19:20:00,
2013-11-21 14:25:00,79.7,63.1,29.91,ESE,112,2.5,4.0,57,0.00,,---,0.00,VWS V14.01,2013-11-21 19:25:00,
2013-11-21 14:30:00,79.7,63.1,29.91,East,90,4.0,6.0,57,0.00,,---,0.00,VWS V14.01,2013-11-21 19:30:00,
2013-11-21 14:35:00,78.8,62.3,29.91,ESE,112,4.9,6.3,57,0.00,,---,0.00,VWS V14.01,2013-11-21 19:35:00,
2013-11-21 14:40:00,78.1,62.1,29.91,East,90,4.0,8.7,58,0.00,,---,0.00,VWS V14.01,2013-11-21 19:40:00,
2013-11-21 14:45:00,77.7,62.3,29.91,ESE,112,5.8,5.8,59,0.00,,---,0.00,VWS V14.01,2013-11-21 19:45:00,
2013-11-21 14:50:00,77.0,62.1,29.91,NE,45,5.4,6.5,60,0.00,,---,0.00,VWS V14.01,2013-11-21 19:50:00,
2013-11-21 14:55:00,76.3,63.2,29.91,NW,315,7.2,7.2,64,0.00,,---,0.00,VWS V14.01,2013-11-21 19:55:00,
2013-11-21 15:00:00,75.0,63.3,29.91,ESE,112,7.4,7.4,67,0.00,,---,0.00,VWS V14.01,2013-11-21 20:00:00,
2013-11-21 15:05:00,74.3,63.1,29.91,NNW,338,2.7,2.7,68,0.00,,---,0.00,VWS V14.01,2013-11-21 20:05:00,
2013-11-21 15:10:00,74.1,63.7,29.91,SE,135,3.1,6.0,70,0.00,,---,0.00,VWS V14.01,2013-11-21 20:10:00,
2013-11-21 15:15:00,73.9,64.0,29.91,ESE,112,4.7,4.7,71,0.00,,---,0.00,VWS V14.01,2013-11-21 20:15:00,
2013-11-21 15:20:00,74.1,64.5,29.91,South,180,2.5,2.5,72,0.00,,---,0.00,VWS V14.01,2013-11-21 20:20:00,
2013-11-21 15:25:00,74.3,65.5,29.91,ENE,68,2.7,2.7,74,0.00,,---,0.00,VWS V14.01,2013-11-21 20:25:00,
2013-11-21 15:30:00,74.5,65.7,29.91,East,90,1.1,3.8,74,0.00,,---,0.00,VWS V14.01,2013-11-21 20:30:00,
2013-11-21 15:35:00,74.7,65.8,29.91,NNE,22,2.7,2.9,74,0.00,,---,0.00,VWS V14.01,2013-11-21 20:35:00,
2013-11-21 15:40:00,74.8,66.0,29.91,NE,45,0.0,1.3,74,0.00,,---,0.00,VWS V14.01,2013-11-21 20:40:00,
2013-11-21 15:45:00,75.0,65.8,29.91,ENE,68,3.1,3.1,73,0.00,,---,0.00,VWS V14.01,2013-11-21 20:45:00,
2013-11-21 15:50:00,75.0,65.8,29.91,NNW,338,1.1,3.8,73,0.00,,---,0.00,VWS V14.01,2013-11-21 20:50:00,
2013-11-21 15:55:00,75.0,65.8,29.91,ESE,112,1.3,1.3,73,0.00,,---,0.00,VWS V14.01,2013-11-21 20:55:00,
2013-11-21 16:00:00,74.8,65.2,29.91,NNE,22,2.2,3.6,72,0.00,,---,0.00,VWS V14.01,2013-11-21 21:00:00,
2013-11-21 16:05:00,74.5,64.5,29.91,NE,45,3.6,3.8,71,0.00,,---,0.00,VWS V14.01,2013-11-21 21:05:00,
2013-11-21 16:10:00,74.3,64.3,29.91,East,90,1.3,2.7,71,0.00,,---,0.00,VWS V14.01,2013-11-21 21:10:00,
2013-11-21 16:15:00,74.3,64.3,29.91,SE,135,3.6,3.6,71,0.00,,---,0.00,VWS V14.01,2013-11-21 21:15:00,
2013-11-21 16:20:00,74.3,64.7,29.91,NE,45,2.5,2.5,72,0.00,,---,0.00,VWS V14.01,2013-11-21 21:20:00,
2013-11-21 16:25:00,74.3,64.7,29.91,NNE,22,2.2,5.4,72,0.00,,---,0.00,VWS V14.01,2013-11-21 21:25:00,
2013-11-21 16:30:00,74.1,64.9,29.91,ESE,112,2.7,3.8,73,0.00,,---,0.00,VWS V14.01,2013-11-21 21:30:00,
2013-11-21 16:35:00,73.8,64.2,29.91,East,90,2.0,4.0,72,0.00,,---,0.00,VWS V14.01,2013-11-21 21:35:00,
2013-11-21 16:40:00,73.2,63.7,29.91,ENE,68,7.8,7.8,72,0.00,,---,0.00,VWS V14.01,2013-11-21 21:40:00,
2013-11-21 16:45:00,72.9,63.3,29.91,ESE,112,2.9,2.9,72,0.00,,---,0.00,VWS V14.01,2013-11-21 21:45:00,
2013-11-21 16:50:00,72.7,63.5,29.91,NE,45,9.8,9.8,73,0.00,,---,0.00,VWS V14.01,2013-11-21 21:50:00,
2013-11-21 16:55:00,72.5,63.0,29.91,ENE,68,3.8,3.8,72,0.00,,---,0.00,VWS V14.01,2013-11-21 21:55:00,
2013-11-21 17:00:00,72.1,63.8,29.91,East,90,2.0,3.4,75,0.00,,---,0.00,VWS V14.01,2013-11-21 22:00:00,
2013-11-21 17:05:00,72.0,64.0,29.91,ESE,112,2.5,6.5,76,0.00,,---,0.00,VWS V14.01,2013-11-21 22:05:00,
2013-11-21 17:10:00,71.8,64.2,29.94,ESE,112,5.6,5.6,77,0.00,,---,0.00,VWS V14.01,2013-11-21 22:10:00,
2013-11-21 17:15:00,71.6,64.0,29.94,NE,45,3.6,3.6,77,0.00,,---,0.00,VWS V14.01,2013-11-21 22:15:00,
2013-11-21 17:20:00,71.4,63.8,29.94,East,90,6.0,6.5,77,0.00,,---,0.00,VWS V14.01,2013-11-21 22:20:00,
2013-11-21 17:25:00,71.1,64.2,29.94,North,0,10.3,10.3,79,0.00,,---,0.00,VWS V14.01,2013-11-21 22:25:00,
2013-11-21 17:30:00,70.9,64.1,29.94,East,90,3.1,5.6,79,0.00,,---,0.00,VWS V14.01,2013-11-21 22:30:00,
2013-11-21 17:35:00,70.7,64.2,29.94,NE,45,3.4,3.4,80,0.00,,---,0.00,VWS V14.01,2013-11-21 22:35:00,
2013-11-21 17:40:00,70.5,64.1,29.94,NNE,22,3.1,7.4,80,0.00,,---,0.00,VWS V14.01,2013-11-21 22:40:00,
2013-11-21 17:45:00,70.5,64.4,29.94,SSE,158,2.2,2.9,81,0.00,,---,0.00,VWS V14.01,2013-11-21 22:45:00,
2013-11-21 17:50:00,70.5,64.8,29.94,ENE,68,3.4,3.6,82,0.00,,---,0.00,VWS V14.01,2013-11-21 22:50:00,
2013-11-21 17:55:00,70.3,64.6,29.94,NNE,22,3.1,4.9,82,0.00,,---,0.00,VWS V14.01,2013-11-21 22:55:00,
2013-11-21 18:00:00,70.2,64.4,29.94,ENE,68,4.7,4.7,82,0.00,,---,0.00,VWS V14.01,2013-11-21 23:00:00,
2013-11-21 18:05:00,70.2,64.4,29.94,East,90,2.7,2.7,82,0.00,,---,0.00,VWS V14.01,2013-11-21 23:05:00,
2013-11-21 18:10:00,70.2,64.4,29.94,East,90,3.8,3.8,82,0.00,,---,0.00,VWS V14.01,2013-11-21 23:10:00,
2013-11-21 18:16:00,70.0,63.9,29.94,ESE,112,2.9,4.3,81,0.00,,---,0.00,VWS V14.01,2013-11-21 23:16:00,
2013-11-21 18:21:00,70.0,63.9,29.94,ESE,112,1.6,3.8,81,0.00,,---,0.00,VWS V14.01,2013-11-21 23:21:00,
2013-11-21 18:26:00,70.0,63.9,29.94,NE,45,3.1,5.4,81,0.00,,---,0.00,VWS V14.01,2013-11-21 23:26:00,
2013-11-21 18:31:00,69.8,63.7,29.94,East,90,2.9,2.9,81,0.00,,---,0.00,VWS V14.01,2013-11-21 23:31:00,
2013-11-21 18:36:00,69.8,63.7,29.94,NE,45,1.3,2.7,81,0.04,,---,0.04,VWS V14.01,2013-11-21 23:36:00,
2013-11-21 18:41:00,69.8,63.7,29.94,North,0,0.0,0.0,81,0.04,,---,0.04,VWS V14.01,2013-11-21 23:41:00,
2013-11-21 18:46:00,70.0,63.9,29.94,East,90,2.5,2.5,81,0.04,,---,0.04,VWS V14.01,2013-11-21 23:46:00,
2013-11-21 18:51:00,70.0,63.9,29.97,East,90,1.1,1.6,81,0.04,,---,0.04,VWS V14.01,2013-11-21 23:51:00,
2013-11-21 18:56:00,70.0,63.9,29.97,ENE,68,0.0,0.0,81,0.04,,---,0.04,VWS V14.01,2013-11-21 23:56:00,
2013-11-21 19:01:00,70.0,63.9,29.97,East,90,0.0,2.0,81,0.04,,---,0.04,VWS V14.01,2013-11-22 00:01:00,
2013-11-21 19:06:00,70.0,63.9,29.94,NE,45,2.0,2.5,81,0.04,,---,0.04,VWS V14.01,2013-11-22 00:06:00,
2013-11-21 19:11:00,70.0,63.9,29.94,East,90,0.0,0.0,81,0.04,,---,0.04,VWS V14.01,2013-11-22 00:11:00,
2013-11-21 19:16:00,69.8,63.7,29.94,NE,45,0.0,2.2,81,0.04,,---,0.04,VWS V14.01,2013-11-22 00:16:00,
2013-11-21 19:21:00,69.8,63.7,29.94,ENE,68,0.0,2.0,81,0.04,,---,0.04,VWS V14.01,2013-11-22 00:21:00,
2013-11-21 19:26:00,69.8,64.1,29.94,NNE,22,0.0,0.0,82,0.04,,---,0.04,VWS V14.01,2013-11-22 00:26:00,
2013-11-21 19:31:00,69.8,64.1,29.94,NE,45,0.0,0.0,82,0.04,,---,0.04,VWS V14.01,2013-11-22 00:31:00,
2013-11-21 19:36:00,69.8,64.1,29.94,NNE,22,0.0,0.0,82,0.04,,---,0.04,VWS V14.01,2013-11-22 00:36:00,
2013-11-21 19:41:00,69.8,64.1,29.94,NW,315,0.0,0.0,82,0.00,,---,0.04,VWS V14.01,2013-11-22 00:41:00,
2013-11-21 19:46:00,69.6,63.9,29.94,ENE,68,0.0,0.0,82,0.00,,---,0.04,VWS V14.01,2013-11-22 00:46:00,
2013-11-21 19:51:00,69.6,63.9,29.97,ENE,68,0.0,0.0,82,0.00,,---,0.04,VWS V14.01,2013-11-22 00:51:00,
2013-11-21 19:56:00,69.6,64.2,29.97,East,90,0.0,0.0,83,0.00,,---,0.04,VWS V14.01,2013-11-22 00:56:00,
2013-11-21 20:01:00,69.6,64.2,29.97,East,90,0.0,0.0,83,0.00,,---,0.04,VWS V14.01,2013-11-22 01:01:00,
2013-11-21 20:06:00,69.6,64.2,29.97,East,90,0.0,0.0,83,0.00,,---,0.04,VWS V14.01,2013-11-22 01:06:00,
2013-11-21 20:11:00,69.6,64.2,29.97,WNW,292,0.0,0.0,83,0.00,,---,0.04,VWS V14.01,2013-11-22 01:11:00,
2013-11-21 20:16:00,69.6,64.6,29.97,ESE,112,0.0,0.0,84,0.00,,---,0.04,VWS V14.01,2013-11-22 01:16:00,
2013-11-21 20:21:00,69.6,64.6,29.97,North,0,2.0,2.0,84,0.00,,---,0.04,VWS V14.01,2013-11-22 01:21:00,
2013-11-21 20:26:00,69.6,64.6,29.97,NE,45,0.0,0.0,84,0.00,,---,0.04,VWS V14.01,2013-11-22 01:26:00,
2013-11-21 20:31:00,69.4,64.7,29.97,NE,45,0.0,0.0,85,0.00,,---,0.04,VWS V14.01,2013-11-22 01:31:00,
2013-11-21 20:36:00,69.4,64.7,29.97,NE,45,0.0,0.0,85,0.00,,---,0.04,VWS V14.01,2013-11-22 01:36:00,
2013-11-21 20:41:00,69.4,64.7,29.97,NE,45,0.0,0.0,85,0.00,,---,0.04,VWS V14.01,2013-11-22 01:41:00,
2013-11-21 20:46:00,69.4,64.7,29.97,NE,45,0.0,0.0,85,0.00,,---,0.04,VWS V14.01,2013-11-22 01:46:00,
2013-11-21 20:51:00,69.4,65.1,29.97,NE,45,0.0,0.0,86,0.00,,---,0.04,VWS V14.01,2013-11-22 01:51:00,
2013-11-21 20:56:00,69.3,64.9,29.97,NE,45,0.0,0.0,86,0.00,,---,0.04,VWS V14.01,2013-11-22 01:56:00,
2013-11-21 21:01:00,69.3,64.9,29.97,NE,45,0.0,0.0,86,0.00,,---,0.04,VWS V14.01,2013-11-22 02:01:00,
2013-11-21 21:06:00,69.3,64.9,29.97,NE,45,0.0,0.0,86,0.00,,---,0.04,VWS V14.01,2013-11-22 02:06:00,
2013-11-21 21:08:00,69.3,64.9,29.97,NE,45,0.0,0.0,86,0.00,,---,0.04,VWS V14.01,2013-11-22 02:08:00,
2013-11-21 21:09:00,69.3,64.9,29.97,NE,45,0.0,0.0,86,0.00,,---,0.04,VWS V14.01,2013-11-22 02:09:00,
2013-11-21 21:10:00,69.1,64.7,29.97,NE,45,0.0,0.0,86,0.00,,---,0.04,VWS V14.01,2013-11-22 02:10:00,
2013-11-21 21:15:00,69.1,65.1,29.97,NE,45,0.0,0.0,87,0.00,,---,0.04,VWS V14.01,2013-11-22 02:15:00,
2013-11-21 21:20:00,69.1,65.1,29.97,NE,45,0.0,0.0,87,0.00,,---,0.04,VWS V14.01,2013-11-22 02:20:00,
2013-11-21 21:25:00,68.9,64.9,29.97,NE,45,0.0,0.0,87,0.00,,---,0.04,VWS V14.01,2013-11-22 02:25:00,
2013-11-21 21:30:00,68.9,64.9,29.97,NE,45,0.0,0.0,87,0.00,,---,0.04,VWS V14.01,2013-11-22 02:30:00,
2013-11-21 21:35:00,68.9,65.2,29.97,NE,45,0.0,0.0,88,0.00,,---,0.04,VWS V14.01,2013-11-22 02:35:00,
2013-11-21 21:40:00,68.9,65.2,29.94,NE,45,0.0,0.0,88,0.00,,---,0.04,VWS V14.01,2013-11-22 02:40:00,
2013-11-21 21:45:00,68.9,65.2,29.94,NE,45,0.0,0.0,88,0.00,,---,0.04,VWS V14.01,2013-11-22 02:45:00,
2013-11-21 21:50:00,68.9,65.2,29.94,NE,45,0.0,0.0,88,0.00,,---,0.04,VWS V14.01,2013-11-22 02:50:00,
2013-11-21 21:55:00,68.9,65.2,29.94,NE,45,0.0,0.0,88,0.00,,---,0.04,VWS V14.01,2013-11-22 02:55:00,
2013-11-21 22:00:00,68.7,65.0,29.94,NE,45,0.0,0.0,88,0.00,,---,0.04,VWS V14.01,2013-11-22 03:00:00,
2013-11-21 22:05:00,68.7,65.3,29.94,NE,45,0.0,0.0,89,0.00,,---,0.04,VWS V14.01,2013-11-22 03:05:00,
2013-11-21 22:10:00,68.9,65.5,29.97,NE,45,0.0,0.0,89,0.00,,---,0.04,VWS V14.01,2013-11-22 03:10:00,
2013-11-21 22:15:00,68.9,65.5,29.97,NE,45,0.0,0.0,89,0.00,,---,0.04,VWS V14.01,2013-11-22 03:15:00,
2013-11-21 22:20:00,68.9,65.5,29.97,NE,45,0.0,0.0,89,0.00,,---,0.04,VWS V14.01,2013-11-22 03:20:00,
2013-11-21 22:25:00,69.1,65.7,29.97,NE,45,0.0,0.0,89,0.00,,---,0.04,VWS V14.01,2013-11-22 03:25:00,
2013-11-21 22:30:00,69.1,66.0,29.97,WNW,292,0.0,0.0,90,0.00,,---,0.04,VWS V14.01,2013-11-22 03:30:00,
2013-11-21 22:35:00,69.1,66.0,29.97,NNW,338,1.3,1.3,90,0.00,,---,0.04,VWS V14.01,2013-11-22 03:35:00,
2013-11-21 22:40:00,69.3,66.2,29.97,NW,315,0.0,0.0,90,0.00,,---,0.04,VWS V14.01,2013-11-22 03:40:00,
2013-11-21 22:45:00,69.3,66.2,29.97,NW,315,1.6,1.6,90,0.00,,---,0.04,VWS V14.01,2013-11-22 03:45:00,
2013-11-21 22:50:00,69.4,66.4,29.97,WNW,292,1.1,1.1,90,0.00,,---,0.04,VWS V14.01,2013-11-22 03:50:00,
2013-11-21 22:55:00,69.4,66.4,29.97,NNW,338,2.0,2.0,90,0.00,,---,0.04,VWS V14.01,2013-11-22 03:55:00,
2013-11-21 23:00:00,69.4,66.7,29.97,NNW,338,0.0,2.2,91,0.00,,---,0.04,VWS V14.01,2013-11-22 04:00:00,
2013-11-21 23:05:00,69.4,66.7,29.94,NNW,338,0.0,0.0,91,0.00,,---,0.04,VWS V14.01,2013-11-22 04:05:00,
2013-11-21 23:10:00,69.4,66.7,29.94,NW,315,0.0,0.0,91,0.00,,---,0.04,VWS V14.01,2013-11-22 04:10:00,
2013-11-21 23:15:00,69.4,66.7,29.94,NW,315,0.0,0.0,91,0.00,,---,0.04,VWS V14.01,2013-11-22 04:15:00,
2013-11-21 23:20:00,69.6,66.9,29.94,WNW,292,0.9,0.9,91,0.00,,---,0.04,VWS V14.01,2013-11-22 04:20:00,
2013-11-21 23:25:00,69.6,66.9,29.94,NE,45,1.6,1.6,91,0.00,,---,0.04,VWS V14.01,2013-11-22 04:25:00,
2013-11-21 23:30:00,69.6,66.9,29.94,NNW,338,0.0,0.0,91,0.00,,---,0.04,VWS V14.01,2013-11-22 04:30:00,
2013-11-21 23:36:00,69.6,66.9,29.97,NNW,338,0.0,0.0,91,0.00,,---,0.04,VWS V14.01,2013-11-22 04:36:00,
2013-11-21 23:41:00,69.6,66.9,29.97,NNW,338,2.0,2.0,91,0.00,,---,0.04,VWS V14.01,2013-11-22 04:41:00,
2013-11-21 23:46:00,69.6,66.9,29.97,NW,315,2.0,2.0,91,0.00,,---,0.04,VWS V14.01,2013-11-22 04:46:00,
2013-11-21 23:51:00,69.8,66.7,29.94,NNW,338,0.0,0.0,90,0.00,,---,0.04,VWS V14.01,2013-11-22 04:51:00,
2013-11-21 23:56:00,69.8,66.7,29.94,ESE,112,0.0,0.0,90,0.00,,---,0.04,VWS V14.01,2013-11-22 04:56:00,